Regional Weather Roundup
Issued by NWS Mt. Holly, NJ

Home | Current Version | Previous Version | Text Only | Print | Product List | Glossary On
Versions: 1 2 3 4 5 6 7 8 9 10 11 12 13 14 15 16 17 18 19 20 21 22 23 24 25 26 27 28 29
000
ASUS41 KPHI 221712
RWRPHI

REGIONAL WEATHER ROUNDUP
NATIONAL WEATHER SERVICE MOUNT HOLLY NJ
100 PM EDT TUE AUG 22 2017

NOTE:  "FAIR" INDICATES FEW OR NO CLOUDS BELOW 12,000 FEET WITH NO
SIGNIFICANT WEATHER AND/OR OBSTRUCTIONS TO VISIBILITY.

 * = STATION DOES NOT REPORT PRECIPITATION (E.G. RAIN, SNOW, ETC.)
        OR FOG.

NJZ015>026-221800-
SOUTHERN NEW JERSEY

CITY           SKY/WX    TMP DP  RH WIND       PRES   REMARKS
POMONA         SUNNY     88  74  63 S15G23    29.98F HX  96
WILDWOOD*      SUNNY     88  77  69 S14       30.00F HX 100
MILLVILLE      SUNNY     89  77  67 SW9G18    29.98F HX 101
WRIGHTSTOWN    MOSUNNY   89  75  64 W16       29.93F HX  99
MOUNT HOLLY    MOSUNNY   88  77  69 VRB5      29.95F HX 100
TRENTON        PTSUNNY   87  75  67 SW9       29.95F HX  96

$$
NJZ001>014-221800-
NORTHERN NEW JERSEY

CITY           SKY/WX    TMP DP  RH WIND       PRES   REMARKS
SUSSEX         SUNNY     86  74  67 VRB6      29.93F HX  94
ANDOVER*         N/A     85  72  65 VRB7      29.95F HX  91
MORRISTOWN     MOSUNNY   84  73  70 SW7       29.95F HX  91
NEWARK         PTSUNNY   87  75  67 S13G18    29.94F HX  96
TETERBORO      SUNNY     87  74  64 S13       29.92F HX  95
CALDWELL       SUNNY     85  75  72 S8        29.94F HX  93
SOMERVILLE     MOSUNNY   87  76  69 VRB5      29.93F HX  97
ALLAIRE*       MOSUNNY   89  75  63 SW10G17   29.96F HX  99
TOMS RIVER*    MOSUNNY   91  76  61 SW10      29.96F HX 103

$$
PAZ043-044-047-054-055-060>062-066>071-221800-
EASTERN PENNSYLVANIA

CITY           SKY/WX    TMP DP  RH WIND       PRES   REMARKS
PHILADELPHIA   MOSUNNY   88  73  61 SW13      29.96F HX  95
NORTH PHILA    MOSUNNY   88  74  63 SW12G17   29.97F HX  96
BLUE BELL*     PTSUNNY   84  73  70 SW8       29.98F HX  91
DOYLESTOWN     MOSUNNY   86  74  67 S8        29.96F HX  94
QUAKERTOWN*    MOSUNNY   84  75  74 SW9       29.98F HX  92
PERKASIE*      FAIR      84  73  70 SW6       29.98F HX  91
POTTSTOWN      MOSUNNY   86  74  67 SW9       29.98F HX  94
LANCASTER      MOSUNNY   89  76  65 SW9       29.96F HX 100
COATESVILLE    MOSUNNY   84  75  74 CALM      29.99F HX  92
READING        MOSUNNY   87  77  72 S7        29.94F HX  99
ALLENTOWN      MOSUNNY   88  73  61 SW13      29.95F HX  95
MOUNT POCONO   MOSUNNY   80  67  64 SW8G21    30.01F
HAZLETON         N/A     86  68  54 S8G16     30.02F
LEHIGHTON      FAIR      84  70  61 S6        29.96F
WILKES BARRE   MOSUNNY   87  68  52 SW12G21   29.93F HX  90

$$
DEZALL-MDZ008-012-015-019-020-221800-
DELAWARE AND EASTERN MARYLAND

CITY           SKY/WX    TMP DP  RH WIND       PRES   REMARKS
WILMINGTON     MOSUNNY   88  77  69 S13       29.97F HX 100
DOVER          MOSUNNY   90  73  58 S17G23    29.96F HX  98
GEORGETOWN     SUNNY     90  72  55 SW16      30.01F HX  97
EASTON         SUNNY     90  73  58 W12G17    30.03F HX  98
ABERDEEN       MOSUNNY   85  77  75 SW10      29.98F HX  96
PATUXENT       MOSUNNY   88  75  65 S13G20    30.00F HX  97
OCEAN CITY     MOSUNNY   85  78  80 SW12      30.03F HX  96
WALLOPS ISLAND MOSUNNY   85  79  82 S16       30.03F HX  98
CAMBRIDGE      SUNNY     88  75  66 S10G16    30.00F HX  97
SALISBURY      SUNNY     88  76  67 SW10      30.01F HX  99

$$
PAZ001-021-NYZ056-072-MDZ011-DCZ001-221800-
OTHER NEARBY LOCATIONS

CITY           SKY/WX    TMP DP  RH WIND       PRES   REMARKS
HARRISBURG     MOSUNNY   89  73  59 S8        29.93F HX  97
STATE COLLEGE  MOSUNNY   82  72  69 S9G18     29.94F
WILLIAMSPORT   SUNNY     86  74  67 S10       29.88F HX  94
BINGHAMTON     MOSUNNY   80  66  62 SW16G23   29.91F
NEW YORK CITY  MOSUNNY   87  74  64 VRB5      29.97F HX  95
BALTIMORE      MOSUNNY   89  74  60 S9        29.97F HX  98
WASHINGTON DC  MOSUNNY   88  77  69 S13       29.98F HX 100

$$




USA.gov is the U.S. government's official web portal to all federal, state and local government web resources and services.